TimeEST,TemperatureF,Dew PointF,Humidity,Sea Level PressureIn,VisibilityMPH,Wind Direction,Wind SpeedMPH,Gust SpeedMPH,PrecipitationIn,Events,Conditions,WindDirDegrees,DateUTC
12:19 AM,46.0,45.0,96,30.25,10.0,NNW,5.8,-,N/A,,Overcast,340,2013-12-09 05:19:00
12:58 AM,46.9,45.0,93,30.24,9.0,NNW,6.9,-,N/A,,Overcast,330,2013-12-09 05:58:00
1:58 AM,46.0,45.0,96,30.24,6.0,WNW,6.9,-,0.00,,Overcast,300,2013-12-09 06:58:00
2:58 AM,46.0,45.0,96,30.23,9.0,NNW,6.9,-,N/A,,Overcast,330,2013-12-09 07:58:00
3:47 AM,46.0,46.0,100,30.21,10.0,NNW,4.6,-,0.00,,Overcast,340,2013-12-09 08:47:00
3:58 AM,46.9,45.0,93,30.22,10.0,NNW,6.9,-,0.00,,Overcast,330,2013-12-09 08:58:00
4:58 AM,46.9,46.0,97,30.21,10.0,North,4.6,-,N/A,,Overcast,350,2013-12-09 09:58:00
5:10 AM,46.9,46.0,97,30.21,10.0,NNE,3.5,-,N/A,,Overcast,30,2013-12-09 10:10:00
5:47 AM,46.9,46.9,100,30.21,3.0,Calm,Calm,-,N/A,,Overcast,0,2013-12-09 10:47:00
5:58 AM,46.9,46.9,100,30.21,5.0,Calm,Calm,-,N/A,,Overcast,0,2013-12-09 10:58:00
6:14 AM,46.9,46.0,97,30.19,1.8,ESE,3.5,-,N/A,,Overcast,110,2013-12-09 11:14:00
6:23 AM,46.9,46.0,97,30.19,0.8,ESE,3.5,-,N/A,,Overcast,120,2013-12-09 11:23:00
6:38 AM,46.9,46.9,100,30.21,1.2,NNW,6.9,-,N/A,,Overcast,330,2013-12-09 11:38:00
6:43 AM,48.0,46.9,96,30.21,3.0,NNW,6.9,-,N/A,,Overcast,340,2013-12-09 11:43:00
6:58 AM,48.0,46.9,96,30.21,8.0,NNW,5.8,-,N/A,,Overcast,340,2013-12-09 11:58:00
7:58 AM,48.0,48.0,100,30.20,4.0,ESE,3.5,-,N/A,,Overcast,120,2013-12-09 12:58:00
8:27 AM,48.9,48.0,97,30.21,2.0,NNW,4.6,-,N/A,,Overcast,340,2013-12-09 13:27:00
8:30 AM,48.9,48.0,97,30.20,1.0,North,3.5,-,N/A,,Overcast,350,2013-12-09 13:30:00
8:37 AM,48.9,48.9,100,30.20,0.2,Calm,Calm,-,N/A,Fog,Fog,0,2013-12-09 13:37:00
8:58 AM,50.0,50.0,100,30.21,1.0,Calm,Calm,-,N/A,,Overcast,0,2013-12-09 13:58:00
9:12 AM,51.1,51.1,100,30.21,2.0,Calm,Calm,-,N/A,,Overcast,0,2013-12-09 14:12:00
9:20 AM,51.1,50.0,96,30.21,4.0,North,3.5,-,N/A,,Overcast,350,2013-12-09 14:20:00
9:58 AM,54.0,53.1,97,30.19,7.0,South,4.6,-,N/A,,Overcast,180,2013-12-09 14:58:00
10:58 AM,57.9,55.9,93,30.17,5.0,South,8.1,-,N/A,,Overcast,170,2013-12-09 15:58:00
11:01 AM,57.0,55.9,96,30.17,1.5,South,9.2,-,N/A,,Overcast,170,2013-12-09 16:01:00
11:07 AM,57.9,57.0,97,30.17,0.8,South,8.1,-,N/A,,Overcast,170,2013-12-09 16:07:00
11:12 AM,57.9,57.0,97,30.17,1.2,South,6.9,-,N/A,,Overcast,180,2013-12-09 16:12:00
11:17 AM,59.0,57.9,96,30.16,3.0,South,8.1,-,N/A,,Overcast,190,2013-12-09 16:17:00
11:51 AM,57.9,57.0,97,30.15,1.8,SW,4.6,-,N/A,,Overcast,220,2013-12-09 16:51:00
11:58 AM,59.0,57.9,96,30.15,1.5,SW,3.5,-,N/A,,Overcast,230,2013-12-09 16:58:00
12:02 PM,59.0,57.9,96,30.14,3.0,SW,3.5,-,N/A,,Overcast,230,2013-12-09 17:02:00
12:39 PM,63.0,61.0,93,30.12,8.0,SSW,4.6,-,N/A,,Mostly Cloudy,210,2013-12-09 17:39:00
12:58 PM,62.1,60.1,93,30.12,9.0,SW,4.6,-,N/A,,Overcast,230,2013-12-09 17:58:00
1:58 PM,66.0,63.0,90,30.11,9.0,SSW,8.1,-,N/A,,Overcast,210,2013-12-09 18:58:00
2:58 PM,66.9,64.9,93,30.09,9.0,SW,10.4,-,N/A,,Scattered Clouds,220,2013-12-09 19:58:00
3:58 PM,66.9,64.0,90,30.10,10.0,WSW,9.2,-,N/A,,Partly Cloudy,240,2013-12-09 20:58:00
4:58 PM,62.1,62.1,100,30.09,6.0,SSW,4.6,-,N/A,,Clear,200,2013-12-09 21:58:00
5:58 PM,59.0,59.0,100,30.10,5.0,Calm,Calm,-,N/A,,Scattered Clouds,0,2013-12-09 22:58:00
6:58 PM,62.1,62.1,100,30.11,6.0,WSW,3.5,-,N/A,,Scattered Clouds,240,2013-12-09 23:58:00
7:58 PM,61.0,61.0,100,30.12,4.0,SSW,4.6,-,N/A,,Clear,210,2013-12-10 00:58:00
8:58 PM,62.1,62.1,100,30.11,5.0,WSW,4.6,-,N/A,,Mostly Cloudy,250,2013-12-10 01:58:00
9:17 PM,60.1,60.1,100,30.11,4.0,West,3.5,-,N/A,,Mostly Cloudy,270,2013-12-10 02:17:00
9:45 PM,60.1,60.1,100,30.10,2.0,Calm,Calm,-,N/A,,Overcast,0,2013-12-10 02:45:00
9:58 PM,60.1,60.1,100,30.10,2.0,West,4.6,-,N/A,,Overcast,260,2013-12-10 02:58:00
10:08 PM,61.0,61.0,100,30.10,4.0,West,5.8,-,N/A,,Overcast,270,2013-12-10 03:08:00
10:42 PM,62.1,62.1,100,30.10,1.8,West,8.1,-,N/A,,Overcast,260,2013-12-10 03:42:00
10:46 PM,62.1,62.1,100,30.10,0.8,West,8.1,-,N/A,,Overcast,260,2013-12-10 03:46:00
10:58 PM,62.1,62.1,100,30.10,0.5,West,5.8,-,N/A,Fog,Fog,280,2013-12-10 03:58:00
11:33 PM,61.0,61.0,100,30.09,0.5,NW,4.6,-,N/A,Fog,Fog,320,2013-12-10 04:33:00
11:44 PM,61.0,61.0,100,30.08,0.8,NNW,3.5,-,N/A,,Overcast,330,2013-12-10 04:44:00
11:58 PM,61.0,61.0,100,30.08,0.5,Calm,Calm,-,N/A,Fog,Fog,0,2013-12-10 04:58:00